Date,TemperatureHighF,TemperatureAvgF,TemperatureLowF,DewpointHighF,DewpointAvgF,DewpointLowF,HumidityHigh,HumidityAvg,HumidityLow,PressureMaxIn,PressureMinIn,WindSpeedMaxMPH,WindSpeedAvgMPH,GustSpeedMaxMPH,PrecipitationSumIn
2013-3-1,37.6,32.6,29.2,30.4,28.2,25.3,93,84,69,30.01,29.95,8,0,8,0.00
2013-3-2,37.9,31.1,26.0,29.7,26.6,20.4,92,83,62,30.03,29.92,10,0,10,0.01
2013-3-3,31.9,25.9,22.0,21.2,16.9,14.0,85,69,51,30.13,30.01,10,1,10,0.00
2013-3-4,52.7,35.0,21.9,23.5,15.8,8.9,78,49,18,30.23,30.10,8,0,8,0.00
2013-3-5,49.5,39.1,32.7,47.4,34.7,22.3,97,85,56,30.12,29.67,10,0,10,0.83
2013-3-6,32.6,28.0,24.8,29.4,24.7,21.2,93,87,79,30.27,29.76,15,1,15,0.00
2013-3-7,39.1,30.5,27.0,30.3,25.4,23.1,90,82,67,30.39,30.26,10,0,10,0.01
2013-3-8,49.7,34.2,24.0,28.0,24.3,21.3,91,70,39,30.43,30.33,9,0,9,0.00
2013-3-9,66.0,44.1,24.0,29.7,25.2,21.6,92,55,22,30.40,30.24,10,0,10,0.00
2013-3-10,65.3,54.3,44.5,34.0,30.2,25.9,56,40,27,30.26,30.09,10,1,13,0.00
2013-3-11,55.3,51.5,48.4,50.6,46.0,33.1,96,83,46,30.11,29.80,14,1,14,0.66
2013-3-12,52.0,42.4,35.0,50.3,37.2,31.0,97,83,58,30.08,29.77,11,1,11,0.31
2013-3-13,44.9,35.6,28.8,31.1,24.4,15.5,90,65,39,30.27,30.07,16,1,16,0.00
2013-3-14,45.7,32.2,23.2,17.5,15.2,11.0,71,51,27,30.38,30.26,11,1,11,0.00
2013-3-15,68.5,47.6,30.2,40.3,29.4,14.6,87,52,23,30.28,29.94,10,0,12,0.00
2013-3-16,77.8,61.0,47.1,46.6,42.7,39.8,77,54,29,29.94,29.73,12,0,12,0.00
2013-3-17,75.3,60.9,50.5,48.7,45.0,40.9,77,58,30,29.92,29.78,10,1,10,0.00
2013-3-18,50.4,44.5,41.0,43.8,40.9,37.2,97,88,78,29.99,29.81,12,1,12,0.51
2013-3-19,56.4,44.3,35.7,42.8,29.5,12.2,98,62,27,30.11,29.87,14,1,14,0.00
2013-3-20,54.2,39.5,29.6,30.6,14.8,7.6,92,39,18,30.14,29.86,10,0,10,0.00
2013-3-21,35.9,27.6,20.1,27.8,14.1,9.8,92,58,34,30.04,29.88,11,1,12,0.00
2013-3-22,46.9,33.4,20.0,23.4,15.0,9.9,89,50,23,30.12,30.03,6,0,6,0.00
2013-3-23,55.9,43.6,35.1,42.4,34.0,21.9,91,70,51,30.09,29.85,7,0,9,0.02
2013-3-24,48.0,42.7,37.2,43.2,39.7,35.5,96,89,75,29.90,29.48,12,1,12,0.85
2013-3-25,39.9,33.7,29.4,36.4,25.9,20.7,97,74,49,29.97,29.53,19,1,19,0.02
2013-3-26,36.5,30.3,26.7,30.0,25.9,22.6,92,84,69,30.28,29.97,14,1,14,0.01
2013-3-27,42.6,33.3,28.6,27.8,24.8,21.6,90,72,49,30.36,30.26,9,1,9,0.01
2013-3-28,51.2,36.5,26.3,24.4,21.3,18.3,80,57,28,30.38,30.28,9,0,9,0.00
2013-3-29,54.7,37.1,24.0,37.8,27.5,14.8,95,73,25,30.39,30.30,13,0,13,0.08
2013-3-30,62.8,48.8,37.9,44.3,38.9,36.7,97,73,42,30.30,30.04,7,0,7,0.19
2013-3-31,63.1,52.1,46.6,52.3,48.1,38.3,97,87,54,30.04,29.83,5,0,5,0.49